This is the latest recevied weather packets stored in our database for station/object G4WLC-1. If no packets are shown the sender has not sent any weather packets the latest 10 day(s).
| Time | Temp. | Humidity | Pressure | Rain* | Wind** | Luminosity | Snow |
|---|---|---|---|---|---|---|---|
| 1778088181 | 12.78° C | 60% | 1013.6 hPa | 0 mm | - | - | - |
| 1778087881 | 12.78° C | 62% | 1013.5 hPa | 0 mm | - | - | - |
| 1778087581 | 12.78° C | 61% | 1013.7 hPa | 0 mm | - | - | - |
| 1778087281 | 12.78° C | 62% | 1013.6 hPa | 0 mm | - | - | - |
| 1778086981 | 12.78° C | 62% | 1013.7 hPa | 0 mm | - | - | - |
| 1778086681 | 12.78° C | 59% | 1013.6 hPa | 0 mm | - | - | - |
| 1778086381 | 13.33° C | 59% | 1013.5 hPa | 0 mm | - | - | - |
| 1778086081 | 13.33° C | 63% | 1013.7 hPa | 0 mm | - | - | - |
| 1778085781 | 13.33° C | 58% | 1013.4 hPa | 0 mm | - | - | - |
| 1778085481 | 13.33° C | 56% | 1013.5 hPa | 0 mm | - | - | - |
| 1778085181 | 13.33° C | 60% | 1013.5 hPa | 0 mm | - | - | - |
| 1778084881 | 13.33° C | 61% | 1013.5 hPa | 0 mm | - | - | - |
| 1778084581 | 13.33° C | 58% | 1013.5 hPa | 0 mm | - | - | - |
| 1778084281 | 13.33° C | 57% | 1013.6 hPa | 0 mm | - | - | - |
| 1778083981 | 13.33° C | 56% | 1013.6 hPa | 0 mm | - | - | - |
| 1778083681 | 13.89° C | 58% | 1013.5 hPa | 0 mm | - | - | - |
| 1778083381 | 14.44° C | 57% | 1013.5 hPa | 0 mm | - | - | - |
| 1778083081 | 15° C | 54% | 1013.4 hPa | 0 mm | - | - | - |
| 1778082781 | 14.44° C | 53% | 1013.3 hPa | 0 mm | - | - | - |
| 1778082481 | 14.44° C | 55% | 1013.3 hPa | 0 mm | - | - | - |
| 1778082181 | 14.44° C | 56% | 1013.4 hPa | 0 mm | - | - | - |
| 1778081881 | 13.89° C | 58% | 1013.5 hPa | 0 mm | - | - | - |
| 1778081581 | 13.89° C | 55% | 1013.6 hPa | 0 mm | - | - | - |
| 1778081281 | 14.44° C | 60% | 1013.6 hPa | 0 mm | - | - | - |
| 1778080981 | 13.89° C | 57% | 1013.7 hPa | 0 mm | - | - | - |
* Rain latest hour (hover to see other rain measurements)
** Current wind speed in m/s (hover to see current wind gust speed)